User: anonymous   Login
Location: Beuerbach
(48.1459°N, 10.9174°E)
Time: 08:22:53
(UTC+00:00)
Language:

Meteor 1-21 - Orbit

View from above orbital plane
View from above orbital plane
View from above satellite
View from above satellite

Ground track
Ground track

The orbit data is extracted from the following two-line orbital elements,

1 07714U 75023A   24200.90491411  .00000247  00000-0  13655-3 0  9999
2 07714  81.2065 190.7916 0030062 160.4477 199.7853 14.08285553849246
Epoch (UTC): 18 July 2024 21:43:04
Eccentricity: 0.0030062
inclination: 81.2065°
perigee height: 843 km
apogee height: 887 km
right ascension of ascending node: 190.7916°
argument of perigee: 160.4477°
revolutions per day: 14.08285553
mean anomaly at epoch: 199.7853°
orbit number at epoch: 84924

The dashed part of the orbit path shows where the satellite is in the earth's shadow,  

DLR